QPF
0.02 0.02 0.02 0.04 0.04 0.02 0.02 0.02 0.01 0.01 0.01 0.01 0.02 0.03 0.02 0.02 0.02 0.02 0.03 0.03 0.03 0.04 0.03 0.02 0.02 0.02 0.02 0.02 0.02 0.03 0.03 0.04 0.03 0.03 0.05 0.05 0.06 0.07 0.06 0.06 0.07 0.08 0.06
0.02 0.02 0.02 0.02 0.02 0.02 0.02 0.02 0.02 0.01 0.01 0.01 0.01 0.02 0.03 0.02 0.01 0.01 0.02 0.02 0.04 0.04 0.03 0.02 0.02 0.02 0.02 0.02 0.02 0.02 0.02 0.02 0.02 0.03 0.03 0.03 0.05 0.06 0.05 0.05 0.06 0.07 0.05
0.01 0.01 0.01 0.01 0.02 0.02 0.02 0.03 0.02 0.01 0.01 0.01 0.02 0.01 0.01 0.01 0.01 0.01 0.02 0.02 0.02 0.02 0.02 0.02 0.02 0.03 0.02 0.02 0.02 0.02 0.02 0.03 0.03 0.03 0.03 0.04 0.04 0.03 0.04 0.06 0.08 0.12 0.09
0.01 0.01 0.02 0.01 0.03 0.04 0.02 0.02 0.01 0.01 0.01 0.02 0.02 0.01 0.01 0.01 0.01 0.01 0.02 0.02 0.02 0.01 0.01 0.01 0.02 0.02 0.03 0.03 0.02 0.03 0.03 0.03 0.03 0.04 0.05 0.05 0.05 0.03 0.03 0.06 0.08 0.09 0.10
0.01 0.02 0.03 0.02 0.03 0.04 0.02 0.02 0.01 0.01 0.01 0.02 0.01 0.01 0.02 0.02 0.02 0.01 0.02 0.02 0.01 0.01 0.01 0.01 0.01 0.01 0.02 0.03 0.02 0.02 0.02 0.03 0.04 0.04 0.05 0.05 0.05 0.04 0.04 0.05 0.06 0.08 0.13
0.02 0.02 0.02 0.02 0.03 0.03 0.02 0.01 0.01 0.01 0.02 0.02 0.01 0.01 0.02 0.02 0.02 0.02 0.01 0.01 0.01 0.01 0.02 0.01 0.02 0.02 0.02 0.03 0.03 0.03 0.02 0.03 0.04 0.05 0.06 0.05 0.04 0.03 0.04 0.04 0.03 0.04 0.05
0.03 0.03 0.02 0.02 0.02 0.02 0.02 0.02 0.01 0.01 0.02 0.02 0.01 0.01 0.01 0.01 0.02 0.01 0.01 0.01 0.01 0.02 0.02 0.02 0.01 0.01 0.01 0.01 0.02 0.02 0.03 0.05 0.05 0.05 0.05 0.05 0.04 0.03 0.04 0.04 0.05 0.04 0.04
0.02 0.03 0.03 0.03 0.02 0.02 0.02 0.02 0.02 0.02 0.02 0.02 0.01 0.01 0.01 0.01 0.01 0.01 0.00 0.00 0.01 0.01 0.01 0.01 0.01 0.01 0.02 0.02 0.03 0.03 0.03 0.04 0.03 0.04 0.04 0.04 0.04 0.04 0.04 0.04 0.04 0.03 0.05
0.05 0.03 0.03 0.02 0.02 0.02 0.02 0.03 0.03 0.03 0.02 0.01 0.00 0.00 0.01 0.00 0.00 0.00 0.00 0.00 0.01 0.00 0.01 0.01 0.01 0.01 0.01 0.02 0.02 0.02 0.02 0.02 0.03 0.02 0.03 0.03 0.03 0.04 0.03 0.03 0.03 0.03 0.02
0.06 0.03 0.02 0.02 0.02 0.01 0.02 0.03 0.03 0.04 0.03 0.02 0.01 0.00 0.01 0.00 0.00 0.00 0.00 0.00 0.00 0.01 0.02 0.01 0.00 0.00 0.01 0.01 0.01 0.01 0.02 0.02 0.01 0.01 0.02 0.03 0.04 0.05 0.04 0.03 0.03 0.02 0.02
0.02 0.02 0.01 0.01 0.01 0.00 0.01 0.02 0.02 0.02 0.02 0.01 0.01 0.01 0.01 0.00 0.00 0.00 0.00 0.00 0.01 0.01 0.01 0.01 0.00 0.00 0.01 0.01 0.01 0.01 0.00 0.00 0.00 0.01 0.02 0.02 0.02 0.03 0.04 0.04 0.03 0.02 0.02
0.01 0.01 0.01 0.01 0.01 0.01 0.00 0.01 0.01 0.01 0.01 0.01 0.01 0.01 0.00 0.00 0.01 0.02 0.01 0.00 0.00 0.01 0.01 0.01 0.01 0.01 0.01 0.01 0.01 0.00 0.00 0.00 0.00 0.00 0.01 0.01 0.01 0.02 0.02 0.02 0.02 0.02 0.02
0.01 0.01 0.01 0.01 0.01 0.01 0.01 0.00 0.01 0.01 0.01 0.01 0.01 0.01 0.01 0.01 0.02 0.02 0.01 0.00 0.01 0.01 0.00 0.00 0.00 0.00 0.01 0.02 0.01 0.00 0.00 0.00 0.00 0.00 0.00 0.00 0.01 0.01 0.02 0.01 0.01 0.01 0.02
0.03 0.02 0.02 0.01 0.00 0.00 0.00 0.00 0.01 0.03 0.04 0.03 0.01 0.02 0.01 0.01 0.01 0.01 0.01 0.01 0.01 0.01 0.01 0.01 0.01 0.01 0.01 0.01 0.01 0.01 0.00 0.00 0.00 0.00 0.00 0.00 0.01 0.01 0.02 0.01 0.01 0.01 0.02
0.04 0.03 0.02 0.01 0.00 0.00 0.01 0.00 0.01 0.02 0.03 0.02 0.01 0.02 0.02 0.02 0.01 0.01 0.02 0.02 0.01 0.01 0.01 0.01 0.01 0.01 0.01 0.01 0.01 0.00 0.00 0.00 0.00 0.00 0.00 0.00 0.01 0.01 0.02 0.02 0.01 0.01 0.02
0.06 0.06 0.04 0.02 0.01 0.01 0.01 0.01 0.01 0.02 0.03 0.03 0.02 0.02 0.01 0.02 0.02 0.02 0.01 0.01 0.01 0.01 0.02 0.01 0.02 0.01 0.01 0.01 0.01 0.00 0.00 0.00 0.00 0.00 0.00 0.00 0.00 0.01 0.02 0.02 0.01 0.01 0.01
0.06 0.09 0.06 0.04 0.03 0.03 0.02 0.02 0.02 0.03 0.03 0.02 0.02 0.02 0.02 0.01 0.01 0.01 0.00 0.00 0.01 0.02 0.02 0.02 0.02 0.01 0.01 0.01 0.01 0.01 0.00 0.00 0.00 0.00 0.00 0.00 0.00 0.01 0.01 0.00 0.00 0.01 0.01
0.04 0.06 0.06 0.05 0.05 0.05 0.05 0.05 0.06 0.05 0.04 0.03 0.03 0.02 0.02 0.02 0.01 0.01 0.01 0.01 0.02 0.02 0.03 0.03 0.02 0.01 0.01 0.01 0.01 0.00 0.01 0.01 0.00 0.00 0.00 0.00 0.00 0.00 0.00 0.00 0.00 0.00 0.00
0.02 0.04 0.06 0.06 0.05 0.04 0.04 0.06 0.08 0.07 0.05 0.05 0.04 0.03 0.02 0.01 0.01 0.01 0.01 0.02 0.02 0.03 0.05 0.05 0.03 0.02 0.01 0.01 0.01 0.01 0.01 0.00 0.00 0.00 0.00 0.00 0.00 0.00 0.00 0.00 0.00 0.00 0.00
0.03 0.03 0.04 0.05 0.04 0.04 0.04 0.04 0.05 0.07 0.06 0.05 0.04 0.03 0.03 0.02 0.02 0.02 0.02 0.02 0.04 0.08 0.12 0.08 0.05 0.03 0.02 0.02 0.01 0.01 0.00 0.00 0.00 0.00 0.00 0.00 0.00 0.00 0.00 0.00 0.00 0.00 0.00
0.04 0.05 0.03 0.04 0.04 0.04 0.04 0.04 0.05 0.06 0.06 0.06 0.05 0.04 0.04 0.04 0.03 0.03 0.03 0.03 0.04 0.04 0.04 0.03 0.02 0.02 0.01 0.01 0.01 0.00 0.00 0.00 0.00 0.00 0.00 0.00 0.00 0.00 0.00 0.00 0.00 0.00 0.00
0.02 0.02 0.02 0.03 0.04 0.05 0.06 0.07 0.07 0.08 0.10 0.11 0.10 0.08 0.07 0.06 0.04 0.03 0.04 0.05 0.04 0.03 0.03 0.03 0.02 0.01 0.01 0.01 0.00 0.01 0.01 0.01 0.00 0.00 0.00 0.00 0.00 0.00 0.00 0.00 0.00 0.00 0.00
0.01 0.01 0.02 0.03 0.04 0.07 0.09 0.11 0.10 0.11 0.12 0.14 0.15 0.14 0.10 0.07 0.05 0.05 0.05 0.06 0.04 0.03 0.03 0.02 0.02 0.02 0.01 0.01 0.02 0.02 0.01 0.01 0.01 0.00 0.00 0.00 0.00 0.00 0.00 0.00 0.00 0.00 0.00
0.01 0.01 0.01 0.02 0.03 0.05 0.07 0.09 0.11 0.13 0.12 0.13 0.12 0.10 0.09 0.07 0.06 0.06 0.06 0.06 0.04 0.04 0.03 0.02 0.02 0.02 0.02 0.03 0.02 0.02 0.02 0.01 0.01 0.00 0.00 0.00 0.00 0.00 0.00 0.00 0.00 0.00 0.00
0.02 0.02 0.02 0.02 0.03 0.03 0.05 0.08 0.09 0.10 0.14 0.14 0.13 0.11 0.09 0.09 0.07 0.06 0.05 0.04 0.04 0.03 0.03 0.03 0.03 0.02 0.03 0.03 0.03 0.03 0.02 0.01 0.01 0.01 0.01 0.01 0.00 0.00 0.00 0.00 0.00 0.00 0.00
0.03 0.03 0.02 0.02 0.02 0.03 0.03 0.05 0.07 0.07 0.10 0.12 0.14 0.13 0.10 0.11 0.10 0.07 0.06 0.05 0.04 0.04 0.04 0.04 0.03 0.03 0.03 0.04 0.03 0.02 0.01 0.01 0.01 0.01 0.01 0.01 0.01 0.01 0.01 0.01 0.01 0.01 0.01
MSLP
1015.44 1015.75 1015.97 1016.07 1016.04 1015.91 1015.73 1015.57 1015.48 1015.48 1015.57 1015.70 1015.83 1015.91 1015.88 1015.73 1015.47 1015.14 1014.80 1014.51 1014.31 1014.25 1014.32 1014.50 1014.75 1015.01 1015.25 1015.41 1015.49 1015.48 1015.40 1015.28 1015.12 1014.96 1014.80 1014.64 1014.48 1014.31 1014.15 1013.98 1013.84 1013.73 1013.68
1015.51 1015.88 1016.15 1016.26 1016.22 1016.05 1015.82 1015.62 1015.49 1015.48 1015.58 1015.75 1015.94 1016.06 1016.07 1015.93 1015.66 1015.30 1014.91 1014.56 1014.33 1014.24 1014.31 1014.50 1014.78 1015.07 1015.33 1015.51 1015.60 1015.58 1015.48 1015.33 1015.17 1015.00 1014.85 1014.71 1014.57 1014.43 1014.28 1014.12 1013.97 1013.84 1013.76
1015.46 1015.88 1016.19 1016.34 1016.30 1016.12 1015.86 1015.62 1015.47 1015.44 1015.55 1015.75 1015.98 1016.15 1016.21 1016.11 1015.86 1015.50 1015.10 1014.74 1014.49 1014.38 1014.43 1014.63 1014.90 1015.20 1015.45 1015.63 1015.70 1015.66 1015.55 1015.40 1015.23 1015.08 1014.96 1014.86 1014.77 1014.67 1014.55 1014.41 1014.26 1014.11 1014.00
1015.26 1015.72 1016.09 1016.28 1016.28 1016.11 1015.85 1015.59 1015.42 1015.38 1015.49 1015.71 1015.97 1016.19 1016.30 1016.26 1016.05 1015.73 1015.36 1015.02 1014.76 1014.65 1014.69 1014.86 1015.11 1015.38 1015.61 1015.75 1015.80 1015.75 1015.63 1015.48 1015.34 1015.23 1015.15 1015.10 1015.06 1015.00 1014.91 1014.79 1014.64 1014.48 1014.34
1014.91 1015.43 1015.86 1016.11 1016.16 1016.03 1015.79 1015.53 1015.35 1015.31 1015.42 1015.64 1015.92 1016.18 1016.34 1016.35 1016.22 1015.96 1015.64 1015.33 1015.09 1014.98 1015.01 1015.15 1015.36 1015.59 1015.77 1015.88 1015.90 1015.84 1015.72 1015.59 1015.48 1015.41 1015.38 1015.38 1015.38 1015.37 1015.30 1015.19 1015.04 1014.87 1014.71
1014.48 1015.03 1015.52 1015.85 1015.97 1015.90 1015.70 1015.47 1015.30 1015.24 1015.34 1015.55 1015.84 1016.11 1016.31 1016.38 1016.31 1016.12 1015.87 1015.61 1015.42 1015.32 1015.33 1015.44 1015.61 1015.78 1015.92 1015.99 1015.98 1015.91 1015.80 1015.70 1015.63 1015.59 1015.61 1015.65 1015.68 1015.69 1015.64 1015.53 1015.38 1015.20 1015.03
1014.02 1014.60 1015.15 1015.55 1015.74 1015.74 1015.60 1015.41 1015.25 1015.19 1015.27 1015.46 1015.73 1016.00 1016.22 1016.33 1016.32 1016.20 1016.01 1015.82 1015.66 1015.58 1015.59 1015.67 1015.79 1015.92 1016.01 1016.04 1016.01 1015.94 1015.84 1015.76 1015.72 1015.72 1015.77 1015.83 1015.88 1015.89 1015.85 1015.75 1015.59 1015.42 1015.25
1013.60 1014.19 1014.77 1015.23 1015.50 1015.57 1015.49 1015.34 1015.20 1015.14 1015.19 1015.36 1015.59 1015.85 1016.07 1016.20 1016.22 1016.16 1016.04 1015.90 1015.78 1015.73 1015.74 1015.80 1015.89 1015.97 1016.03 1016.03 1015.98 1015.90 1015.82 1015.76 1015.74 1015.76 1015.81 1015.88 1015.93 1015.94 1015.90 1015.80 1015.66 1015.50 1015.36
1013.25 1013.84 1014.44 1014.93 1015.25 1015.38 1015.36 1015.25 1015.14 1015.08 1015.11 1015.24 1015.44 1015.66 1015.86 1015.99 1016.03 1016.01 1015.93 1015.85 1015.78 1015.75 1015.77 1015.83 1015.90 1015.96 1015.98 1015.96 1015.90 1015.82 1015.74 1015.68 1015.66 1015.69 1015.74 1015.79 1015.83 1015.83 1015.79 1015.69 1015.58 1015.46 1015.36
1013.00 1013.56 1014.15 1014.64 1014.98 1015.15 1015.18 1015.11 1015.03 1014.99 1015.02 1015.12 1015.28 1015.46 1015.62 1015.73 1015.78 1015.78 1015.74 1015.69 1015.67 1015.67 1015.72 1015.78 1015.85 1015.90 1015.91 1015.88 1015.80 1015.71 1015.63 1015.56 1015.53 1015.54 1015.57 1015.60 1015.62 1015.61 1015.56 1015.48 1015.39 1015.31 1015.27
1012.83 1013.35 1013.88 1014.35 1014.68 1014.86 1014.93 1014.91 1014.87 1014.86 1014.90 1014.99 1015.13 1015.27 1015.39 1015.48 1015.52 1015.52 1015.51 1015.50 1015.52 1015.57 1015.64 1015.74 1015.82 1015.87 1015.88 1015.84 1015.76 1015.66 1015.55 1015.47 1015.41 1015.38 1015.37 1015.37 1015.36 1015.32 1015.27 1015.20 1015.14 1015.11 1015.12
1012.71 1013.15 1013.61 1014.01 1014.31 1014.50 1014.59 1014.63 1014.66 1014.70 1014.78 1014.88 1015.00 1015.12 1015.22 1015.27 1015.30 1015.31 1015.31 1015.34 1015.40 1015.50 1015.63 1015.76 1015.87 1015.95 1015.97 1015.93 1015.84 1015.71 1015.58 1015.46 1015.35 1015.28 1015.22 1015.17 1015.12 1015.06 1014.99 1014.93 1014.88 1014.87 1014.92
1012.59 1012.95 1013.31 1013.62 1013.87 1014.05 1014.18 1014.29 1014.40 1014.52 1014.66 1014.80 1014.94 1015.06 1015.13 1015.17 1015.18 1015.19 1015.21 1015.27 1015.38 1015.54 1015.72 1015.91 1016.07 1016.18 1016.22 1016.18 1016.08 1015.94 1015.77 1015.59 1015.44 1015.30 1015.18 1015.07 1014.97 1014.87 1014.78 1014.70 1014.65 1014.63 1014.68
1012.45 1012.71 1012.95 1013.18 1013.38 1013.56 1013.73 1013.92 1014.12 1014.35 1014.57 1014.79 1014.96 1015.09 1015.16 1015.18 1015.19 1015.19 1015.24 1015.34 1015.51 1015.72 1015.98 1016.23 1016.44 1016.59 1016.66 1016.63 1016.52 1016.34 1016.13 1015.90 1015.68 1015.48 1015.29 1015.12 1014.95 1014.80 1014.66 1014.54 1014.44 1014.40 1014.40
1012.27 1012.43 1012.58 1012.72 1012.88 1013.07 1013.29 1013.57 1013.89 1014.23 1014.56 1014.85 1015.07 1015.22 1015.30 1015.32 1015.32 1015.34 1015.41 1015.55 1015.77 1016.06 1016.38 1016.70 1016.98 1017.17 1017.26 1017.24 1017.12 1016.92 1016.66 1016.37 1016.09 1015.81 1015.55 1015.30 1015.07 1014.84 1014.63 1014.45 1014.29 1014.17 1014.11
1012.09 1012.16 1012.22 1012.31 1012.44 1012.65 1012.95 1013.32 1013.76 1014.21 1014.64 1015.01 1015.28 1015.46 1015.54 1015.57 1015.57 1015.60 1015.70 1015.89 1016.17 1016.52 1016.91 1017.30 1017.63 1017.87 1017.98 1017.97 1017.83 1017.60 1017.30 1016.96 1016.61 1016.26 1015.93 1015.60 1015.30 1015.00 1014.71 1014.44 1014.19 1013.98 1013.82
1011.96 1011.96 1011.97 1012.02 1012.15 1012.40 1012.76 1013.23 1013.77 1014.32 1014.83 1015.26 1015.58 1015.77 1015.86 1015.89 1015.90 1015.95 1016.08 1016.31 1016.65 1017.06 1017.52 1017.97 1018.34 1018.61 1018.75 1018.74 1018.59 1018.33 1017.99 1017.60 1017.19 1016.78 1016.38 1016.00 1015.62 1015.24 1014.87 1014.51 1014.17 1013.85 1013.58
1011.95 1011.92 1011.90 1011.94 1012.10 1012.39 1012.82 1013.36 1013.97 1014.59 1015.15 1015.61 1015.94 1016.14 1016.23 1016.26 1016.28 1016.35 1016.51 1016.79 1017.18 1017.65 1018.16 1018.65 1019.06 1019.35 1019.49 1019.47 1019.31 1019.02 1018.65 1018.22 1017.78 1017.33 1016.88 1016.45 1016.01 1015.57 1015.13 1014.69 1014.25 1013.84 1013.45
1012.12 1012.09 1012.08 1012.14 1012.33 1012.66 1013.14 1013.72 1014.37 1015.00 1015.57 1016.03 1016.34 1016.53 1016.61 1016.64 1016.67 1016.77 1016.97 1017.29 1017.73 1018.24 1018.78 1019.30 1019.72 1020.01 1020.15 1020.11 1019.93 1019.63 1019.23 1018.79 1018.32 1017.85 1017.39 1016.93 1016.46 1015.99 1015.50 1015.00 1014.49 1013.99 1013.51
1012.52 1012.52 1012.53 1012.63 1012.85 1013.22 1013.71 1014.30 1014.93 1015.54 1016.07 1016.48 1016.76 1016.92 1016.99 1017.02 1017.07 1017.20 1017.44 1017.80 1018.27 1018.82 1019.38 1019.89 1020.31 1020.58 1020.69 1020.64 1020.44 1020.11 1019.71 1019.27 1018.81 1018.34 1017.89 1017.43 1016.97 1016.49 1015.98 1015.45 1014.89 1014.34 1013.79
1013.14 1013.18 1013.25 1013.38 1013.63 1014.00 1014.48 1015.03 1015.60 1016.14 1016.60 1016.94 1017.17 1017.29 1017.35 1017.39 1017.47 1017.64 1017.92 1018.32 1018.82 1019.37 1019.93 1020.43 1020.81 1021.05 1021.12 1021.04 1020.82 1020.49 1020.09 1019.66 1019.23 1018.80 1018.38 1017.96 1017.53 1017.07 1016.57 1016.04 1015.47 1014.88 1014.30
1013.94 1014.03 1014.14 1014.31 1014.57 1014.92 1015.35 1015.83 1016.31 1016.75 1017.11 1017.37 1017.54 1017.63 1017.68 1017.75 1017.87 1018.09 1018.42 1018.85 1019.36 1019.91 1020.44 1020.90 1021.23 1021.42 1021.45 1021.33 1021.08 1020.75 1020.38 1019.98 1019.59 1019.22 1018.86 1018.50 1018.12 1017.71 1017.25 1016.74 1016.18 1015.59 1014.99
1014.83 1014.97 1015.12 1015.31 1015.56 1015.87 1016.23 1016.61 1016.98 1017.31 1017.57 1017.75 1017.86 1017.93 1017.99 1018.09 1018.27 1018.54 1018.91 1019.37 1019.89 1020.42 1020.91 1021.30 1021.57 1021.69 1021.67 1021.51 1021.26 1020.93 1020.59 1020.24 1019.91 1019.61 1019.32 1019.04 1018.73 1018.38 1017.97 1017.50 1016.97 1016.40 1015.80
1015.71 1015.90 1016.08 1016.27 1016.50 1016.75 1017.02 1017.30 1017.55 1017.77 1017.93 1018.04 1018.12 1018.19 1018.28 1018.43 1018.66 1018.99 1019.40 1019.88 1020.38 1020.87 1021.31 1021.63 1021.83 1021.88 1021.80 1021.61 1021.35 1021.04 1020.74 1020.45 1020.19 1019.96 1019.75 1019.54 1019.31 1019.02 1018.67 1018.25 1017.76 1017.22 1016.63
1016.51 1016.72 1016.91 1017.10 1017.28 1017.47 1017.66 1017.83 1017.98 1018.10 1018.19 1018.25 1018.32 1018.40 1018.54 1018.74 1019.03 1019.40 1019.84 1020.33 1020.81 1021.25 1021.61 1021.86 1021.98 1021.97 1021.84 1021.63 1021.37 1021.10 1020.83 1020.61 1020.42 1020.27 1020.13 1019.98 1019.81 1019.58 1019.28 1018.90 1018.46 1017.95 1017.39
1017.17 1017.39 1017.57 1017.74 1017.88 1018.01 1018.12 1018.21 1018.27 1018.32 1018.36 1018.40 1018.47 1018.59 1018.77 1019.02 1019.36 1019.77 1020.22 1020.69 1021.13 1021.51 1021.80 1021.97 1022.02 1021.96 1021.80 1021.58 1021.34 1021.10 1020.88 1020.72 1020.59 1020.50 1020.42 1020.33 1020.19 1020.01 1019.74 1019.41 1019.00 1018.53 1018.00
Thickness
5805 5805 5803 5801 5796 5793 5790 5787 5783 5782 5780 5776 5772 5769 5768 5769 5769 5770 5770 5769 5769 5768 5767 5767 5766 5765 5763 5762 5761 5758 5755 5753 5753 5749 5745 5746 5747 5746 5745 5744 5742 5740 5739
5804 5804 5802 5801 5797 5794 5792 5789 5786 5784 5782 5779 5777 5774 5772 5771 5771 5771 5771 5770 5769 5769 5768 5767 5765 5765 5763 5761 5760 5758 5754 5752 5752 5747 5741 5736 5736 5739 5741 5740 5738 5737 5735
5807 5805 5804 5802 5800 5797 5795 5793 5789 5787 5785 5783 5779 5776 5773 5771 5769 5769 5769 5770 5770 5769 5768 5767 5766 5765 5763 5761 5759 5758 5755 5750 5751 5750 5744 5734 5729 5731 5733 5734 5733 5732 5731
5814 5810 5807 5804 5803 5801 5800 5797 5793 5790 5787 5784 5780 5776 5771 5767 5768 5769 5770 5770 5770 5769 5768 5767 5766 5765 5763 5761 5760 5759 5757 5753 5748 5748 5748 5745 5740 5731 5726 5727 5728 5728 5727
5819 5815 5813 5811 5809 5806 5803 5799 5796 5792 5789 5786 5783 5778 5775 5773 5772 5771 5769 5768 5769 5769 5768 5767 5766 5764 5763 5762 5761 5759 5756 5754 5750 5748 5746 5743 5740 5737 5728 5721 5721 5721 5721
5824 5821 5818 5814 5811 5809 5805 5801 5797 5793 5791 5788 5785 5781 5777 5774 5771 5769 5767 5766 5767 5767 5767 5766 5765 5764 5762 5761 5760 5758 5756 5754 5752 5749 5747 5743 5739 5735 5730 5723 5718 5715 5715
5826 5822 5817 5814 5811 5809 5806 5803 5798 5794 5792 5790 5786 5784 5781 5777 5773 5770 5768 5766 5765 5765 5765 5765 5764 5763 5762 5761 5760 5757 5755 5753 5751 5749 5747 5745 5743 5740 5734 5726 5718 5714 5712
5827 5824 5822 5819 5815 5812 5808 5804 5799 5796 5793 5790 5787 5785 5783 5779 5775 5773 5771 5768 5767 5766 5766 5765 5763 5762 5761 5760 5758 5756 5754 5752 5750 5749 5747 5744 5742 5740 5736 5729 5721 5712 5707
5828 5826 5824 5822 5818 5814 5811 5807 5802 5798 5795 5792 5788 5785 5783 5780 5777 5774 5772 5770 5769 5768 5766 5765 5763 5761 5760 5758 5756 5753 5751 5750 5748 5746 5745 5743 5741 5738 5735 5732 5726 5716 5705
5829 5827 5825 5823 5821 5818 5814 5810 5805 5801 5797 5793 5790 5786 5783 5781 5778 5775 5771 5770 5768 5767 5765 5763 5762 5760 5758 5756 5753 5751 5749 5747 5745 5743 5741 5739 5737 5735 5732 5729 5725 5720 5712
5830 5829 5827 5826 5824 5820 5815 5810 5806 5801 5797 5794 5790 5787 5784 5781 5778 5775 5772 5770 5768 5766 5764 5762 5760 5758 5755 5753 5751 5748 5746 5743 5741 5740 5737 5735 5734 5731 5728 5725 5721 5717 5712
5830 5830 5828 5825 5822 5818 5814 5810 5806 5802 5799 5795 5791 5787 5784 5781 5777 5774 5772 5770 5767 5765 5763 5760 5758 5756 5753 5751 5748 5746 5743 5740 5737 5735 5733 5731 5730 5727 5724 5721 5717 5712 5709
5826 5825 5824 5822 5820 5818 5815 5810 5807 5804 5800 5796 5791 5786 5783 5780 5777 5774 5771 5769 5765 5763 5761 5758 5755 5752 5750 5748 5745 5742 5740 5737 5734 5732 5730 5727 5725 5722 5719 5717 5712 5708 5705
5820 5820 5819 5819 5819 5818 5815 5811 5807 5804 5800 5795 5790 5786 5783 5780 5777 5774 5770 5767 5764 5760 5757 5755 5752 5749 5747 5745 5742 5739 5736 5733 5731 5729 5727 5724 5722 5719 5716 5712 5708 5703 5698
5814 5814 5814 5815 5814 5813 5812 5810 5807 5803 5799 5794 5789 5786 5783 5780 5776 5772 5768 5765 5762 5759 5755 5752 5748 5746 5744 5742 5738 5735 5732 5728 5726 5724 5722 5721 5719 5716 5713 5709 5704 5699 5693
5812 5812 5812 5812 5811 5810 5809 5807 5805 5802 5797 5792 5788 5785 5781 5778 5774 5770 5766 5763 5759 5756 5752 5748 5745 5742 5741 5739 5737 5733 5728 5724 5721 5719 5717 5715 5713 5711 5709 5706 5702 5697 5691
5810 5810 5809 5809 5809 5808 5808 5804 5802 5799 5794 5790 5787 5783 5779 5775 5771 5769 5764 5760 5756 5753 5749 5745 5742 5739 5737 5736 5733 5730 5725 5720 5717 5714 5711 5710 5707 5705 5702 5699 5696 5692 5689
5807 5807 5807 5807 5807 5806 5804 5801 5798 5794 5790 5787 5783 5781 5777 5773 5769 5765 5760 5757 5753 5749 5745 5741 5739 5735 5733 5731 5728 5725 5721 5717 5713 5710 5706 5703 5700 5698 5695 5692 5688 5685 5683
5805 5805 5805 5804 5802 5801 5800 5796 5792 5789 5785 5782 5780 5778 5774 5770 5765 5761 5757 5754 5749 5745 5741 5737 5734 5730 5727 5726 5723 5720 5715 5711 5708 5705 5702 5699 5696 5693 5690 5686 5681 5678 5676
5802 5800 5799 5798 5795 5794 5794 5789 5786 5782 5779 5778 5777 5775 5771 5767 5762 5758 5754 5751 5746 5742 5738 5733 5729 5726 5722 5720 5717 5715 5711 5706 5702 5699 5696 5694 5691 5688 5685 5680 5676 5672 5669
5795 5795 5793 5790 5789 5789 5788 5783 5780 5777 5777 5776 5773 5769 5766 5763 5759 5755 5750 5746 5741 5736 5732 5727 5724 5720 5718 5715 5713 5710 5706 5702 5697 5694 5691 5688 5686 5683 5679 5675 5672 5668 5665
5785 5786 5785 5782 5782 5783 5781 5777 5774 5775 5773 5770 5766 5763 5760 5758 5754 5749 5745 5740 5735 5729 5725 5720 5716 5714 5712 5710 5707 5705 5701 5698 5692 5689 5686 5683 5680 5677 5674 5670 5667 5663 5658
5776 5776 5775 5773 5773 5774 5773 5768 5768 5768 5765 5761 5758 5755 5752 5751 5748 5743 5738 5733 5729 5724 5719 5715 5711 5708 5706 5703 5700 5697 5695 5691 5687 5684 5681 5678 5674 5671 5667 5664 5661 5656 5651
5767 5767 5766 5764 5763 5764 5764 5762 5762 5761 5757 5753 5749 5746 5742 5741 5739 5736 5732 5727 5722 5718 5714 5710 5707 5703 5699 5696 5692 5689 5687 5683 5680 5677 5674 5670 5667 5663 5660 5656 5652 5649 5645
5759 5758 5757 5755 5754 5755 5754 5754 5754 5753 5748 5745 5741 5738 5735 5732 5729 5727 5724 5721 5719 5716 5711 5707 5703 5698 5693 5692 5689 5684 5681 5677 5674 5669 5665 5661 5658 5654 5651 5648 5645 5641 5637
5749 5749 5748 5746 5746 5746 5745 5745 5746 5745 5741 5737 5733 5731 5729 5724 5720 5717 5713 5712 5710 5708 5706 5703 5699 5696 5693 5688 5683 5680 5678 5673 5668 5663 5658 5655 5652 5649 5645 5641 5638 5635 5632